sat.trackr.live / text

‹ back to catalog

ONEWEB-0458

NORAD 51648 · 2022-012AC

PAYLOAD ACTIVE UNKNOWN

§ Identity

Operator
Country
UK
Launch date
2022-02-10
Launch site
FRGUI
Launch vehicle
Mass (kg)
RCS (m²)

Purposes: comms

External: N2YO · Heavens-Above · Gunter

§ Orbital elements

Epoch: 2026-05-25T03:05:43.745856Z

Period
109.89 min
Inclination
87.8863°
Eccentricity
0.0001989
Mean motion
13.10374762 rev/d
Perigee alt
1,220.2 km
Apogee alt
1,223.2 km
Semi-major
7,599.8 km
B*
-1.8366e-3
RAAN
40.8478°
Arg perigee
78.4009°
Mean anomaly
281.7341°
Rev number
20,628

§ Raw data

ONEWEB-04581 51648U 22012AC  26145.12897854 -.00000628  00000+0 -18366-2 0  99962 51648  87.8863  40.8478 0001989  78.4009 281.7341 13.10374762206280

JSON: /api/v1/satellites/51648 · /tle

For live sub-satellite position, see the globe view (requires WebGL).

§ Visibility from observer

Set your observer location to see the next 7 days of passes ≥ 10°. The values pass through the URL so the page stays shareable.

No JS? Fill the form by hand. The geolocation button needs JavaScript.